| time (UTC) | temp F | wind direction | speed MPH | gust MPH | rain 1hr in | rain 24hr in | rain mn in | humidity % | barometer mb |
| 20260505000026 | 73 | 223 | 4.0 | 9.0 | 0.00 | 0.00 | 0.00 | 43 | 1003.0 |
| 20260504235522 | 73 | 223 | 4.0 | 9.0 | 0.00 | 0.00 | 0.00 | 43 | 1003.0 |
| 20260504235022 | 73 | 220 | 4.0 | 11.0 | 0.00 | 0.00 | 0.00 | 43 | 1002.9 |
| 20260504234523 | 73 | 252 | 5.0 | 11.0 | 0.00 | 0.00 | 0.00 | 43 | 1003.0 |
| 20260504234020 | 73 | 213 | 4.0 | 9.0 | 0.00 | 0.00 | 0.00 | 43 | 1002.9 |
| 20260504233526 | 73 | 193 | 3.0 | 9.0 | 0.00 | 0.00 | 0.00 | 43 | 1002.9 |
| 20260504233020 | 74 | 229 | 4.0 | 9.0 | 0.00 | 0.00 | 0.00 | 43 | 1002.9 |
| 20260504232520 | 74 | 244 | 3.0 | 7.0 | 0.00 | 0.00 | 0.00 | 43 | 1002.9 |
| 20260504232019 | 74 | 234 | 4.0 | 7.0 | 0.00 | 0.00 | 0.00 | 42 | 1002.7 |
| 20260504231520 | 75 | 204 | 2.0 | 8.0 | 0.00 | 0.00 | 0.00 | 42 | 1002.7 |
| 20260504231020 | 75 | 242 | 2.0 | 11.0 | 0.00 | 0.00 | 0.00 | 41 | 1002.7 |
| 20260504230520 | 75 | 226 | 4.0 | 11.0 | 0.00 | 0.00 | 0.00 | 40 | 1002.7 |
| 20260504230019 | 76 | 209 | 2.0 | 10.0 | 0.00 | 0.00 | 0.00 | 40 | 1002.7 |
| 20260504225519 | 76 | 210 | 4.0 | 11.0 | 0.00 | 0.00 | 0.00 | 40 | 1002.8 |
| 20260504225019 | 76 | 205 | 3.0 | 12.0 | 0.00 | 0.00 | 0.00 | 40 | 1002.8 |
| 20260504224519 | 76 | 239 | 6.0 | 12.0 | 0.00 | 0.00 | 0.00 | 40 | 1002.8 |
| 20260504224018 | 76 | 222 | 4.0 | 12.0 | 0.00 | 0.00 | 0.00 | 40 | 1002.8 |
| 20260504223518 | 76 | 229 | 5.0 | 12.0 | 0.00 | 0.00 | 0.00 | 40 | 1002.7 |
| 20260504223024 | 76 | 176 | 5.0 | 11.0 | 0.00 | 0.00 | 0.00 | 40 | 1002.7 |
| 20260504222518 | 77 | 218 | 5.0 | 15.0 | 0.00 | 0.00 | 0.00 | 39 | 1002.8 |
| 20260504222118 | 76 | 345 | 5.0 | 18.0 | 0.00 | 0.00 | 0.00 | 39 | 1002.9 |
| 20260504221517 | 77 | 238 | 6.0 | 17.0 | 0.00 | 0.00 | 0.00 | 39 | 1002.8 |
| 20260504221017 | 77 | 195 | 3.0 | 17.0 | 0.00 | 0.00 | 0.00 | 39 | 1002.8 |
| 20260504220517 | 77 | 181 | 6.0 | 16.0 | 0.00 | 0.00 | 0.00 | 39 | 1002.8 |
| 20260504220015 | 77 | 223 | 7.0 | 14.0 | 0.00 | 0.00 | 0.00 | 39 | 1002.8 |
| 20260504215515 | 77 | 240 | 6.0 | 13.0 | 0.00 | 0.00 | 0.00 | 39 | 1002.8 |
| 20260504215015 | 77 | 217 | 3.0 | 16.0 | 0.00 | 0.00 | 0.00 | 40 | 1002.8 |
| 20260504214514 | 76 | 229 | 8.0 | 16.0 | 0.00 | 0.00 | 0.00 | 39 | 1002.8 |
| 20260504214015 | 76 | 236 | 7.0 | 14.0 | 0.00 | 0.00 | 0.00 | 39 | 1002.8 |
| 20260504213514 | 76 | 242 | 6.0 | 18.0 | 0.00 | 0.00 | 0.00 | 39 | 1002.8 |
| 20260504213014 | 76 | 238 | 10.0 | 18.0 | 0.00 | 0.00 | 0.00 | 38 | 1002.9 |
| 20260504212514 | 76 | 254 | 8.0 | 18.0 | 0.00 | 0.00 | 0.00 | 39 | 1002.9 |
| 20260504212014 | 76 | 246 | 6.0 | 13.0 | 0.00 | 0.00 | 0.00 | 38 | 1002.9 |
| 20260504211513 | 76 | 226 | 7.0 | 13.0 | 0.00 | 0.00 | 0.00 | 38 | 1002.9 |
| 20260504211014 | 76 | 251 | 5.0 | 14.0 | 0.00 | 0.00 | 0.00 | 38 | 1002.9 |
| 20260504210512 | 76 | 191 | 6.0 | 14.0 | 0.00 | 0.00 | 0.00 | 38 | 1002.9 |
| 20260504210017 | 76 | 248 | 7.0 | 13.0 | 0.00 | 0.00 | 0.00 | 38 | 1002.9 |
| 20260504205511 | 76 | 232 | 6.0 | 12.0 | 0.00 | 0.00 | 0.00 | 38 | 1003.0 |
| 20260504205011 | 76 | 247 | 3.0 | 20.0 | 0.00 | 0.00 | 0.00 | 38 | 1003.0 |
| 20260504204510 | 76 | 233 | 7.0 | 18.0 | 0.00 | 0.00 | 0.00 | 37 | 1002.9 |
| 20260504204010 | 77 | 264 | 8.0 | 15.0 | 0.00 | 0.00 | 0.00 | 37 | 1003.0 |
| 20260504203510 | 76 | 198 | 5.0 | 14.0 | 0.00 | 0.00 | 0.00 | 39 | 1003.0 |
| 20260504203010 | 76 | 238 | 6.0 | 14.0 | 0.00 | 0.00 | 0.00 | 38 | 1003.1 |
| 20260504202509 | 76 | 226 | 5.0 | 15.0 | 0.00 | 0.00 | 0.00 | 37 | 1003.2 |
| 20260504202008 | 76 | 212 | 8.0 | 15.0 | 0.00 | 0.00 | 0.00 | 38 | 1003.3 |
| 20260504201508 | 76 | 198 | 4.0 | 10.0 | 0.00 | 0.00 | 0.00 | 38 | 1003.4 |
| 20260504201008 | 75 | 200 | 4.0 | 12.0 | 0.00 | 0.00 | 0.00 | 38 | 1003.4 |
| 20260504200507 | 75 | 164 | 5.0 | 15.0 | 0.00 | 0.00 | 0.00 | 39 | 1003.5 |
| 20260504200006 | 74 | 188 | 8.0 | 14.0 | 0.00 | 0.00 | 0.00 | 38 | 1003.5 |
| 20260504195506 | 74 | 195 | 6.0 | 14.0 | 0.00 | 0.00 | 0.00 | 39 | 1003.6 |
| 20260504195006 | 75 | 207 | 6.0 | 14.0 | 0.00 | 0.00 | 0.00 | 38 | 1003.5 |
| 20260504194506 | 76 | 249 | 5.0 | 14.0 | 0.00 | 0.00 | 0.00 | 37 | 1003.6 |
| 20260504194005 | 77 | 231 | 5.0 | 18.0 | 0.00 | 0.00 | 0.00 | 37 | 1003.5 |
| 20260504193506 | 76 | 188 | 8.0 | 18.0 | 0.00 | 0.00 | 0.00 | 36 | 1003.6 |
| 20260504193003 | 76 | 231 | 6.0 | 16.0 | 0.00 | 0.00 | 0.00 | 38 | 1003.5 |
| 20260504192502 | 75 | 195 | 6.0 | 18.0 | 0.00 | 0.00 | 0.00 | 37 | 1003.7 |
| 20260504192002 | 76 | 238 | 9.0 | 18.0 | 0.00 | 0.00 | 0.00 | 36 | 1003.8 |
| 20260504191501 | 76 | 195 | 7.0 | 15.0 | 0.00 | 0.00 | 0.00 | 37 | 1003.6 |
| 20260504191100 | 75 | 223 | 5.0 | 12.0 | 0.00 | 0.00 | 0.00 | 37 | 1003.7 |
| 20260504190602 | 76 | 218 | 5.0 | 13.0 | 0.00 | 0.00 | 0.00 | 37 | 1003.8 |
| 20260504185557 | 75 | 239 | 7.0 | 14.0 | 0.00 | 0.00 | 0.00 | 36 | 1004.0 |
| 20260504185058 | 76 | 201 | 7.0 | 12.0 | 0.00 | 0.00 | 0.00 | 36 | 1004.0 |
| 20260504184556 | 75 | 159 | 7.0 | 12.0 | 0.00 | 0.00 | 0.00 | 37 | 1004.2 |
| 20260504184056 | 75 | 235 | 6.0 | 14.0 | 0.00 | 0.00 | 0.00 | 36 | 1004.3 |
| 20260504183554 | 75 | 203 | 6.0 | 17.0 | 0.00 | 0.00 | 0.00 | 37 | 1004.4 |
| 20260504183056 | 75 | 250 | 10.0 | 17.0 | 0.00 | 0.00 | 0.00 | 35 | 1004.6 |
| 20260504182557 | 75 | 210 | 5.0 | 13.0 | 0.00 | 0.00 | 0.00 | 36 | 1004.5 |
| 20260504182053 | 75 | 210 | 4.0 | 15.0 | 0.00 | 0.00 | 0.00 | 37 | 1004.6 |
| 20260504181558 | 75 | 242 | 8.0 | 15.0 | 0.00 | 0.00 | 0.00 | 35 | 1004.8 |
| 20260504181053 | 75 | 228 | 3.0 | 15.0 | 0.00 | 0.00 | 0.00 | 37 | 1004.9 |
| 20260504180551 | 75 | 191 | 8.0 | 14.0 | 0.00 | 0.00 | 0.00 | 36 | 1004.9 |
| 20260504180051 | 75 | 193 | 2.0 | 15.0 | 0.00 | 0.00 | 0.00 | 37 | 1005.0 |
| 20260504175549 | 75 | 274 | 3.0 | 15.0 | 0.00 | 0.00 | 0.00 | 36 | 1005.1 |
| 20260504175050 | 75 | 257 | 4.0 | 13.0 | 0.00 | 0.00 | 0.00 | 37 | 1005.1 |
| 20260504174550 | 74 | 206 | 3.0 | 12.0 | 0.00 | 0.00 | 0.00 | 36 | 1005.1 |
| 20260504174047 | 75 | 220 | 6.0 | 12.0 | 0.00 | 0.00 | 0.00 | 35 | 1005.2 |
| 20260504173547 | 75 | 199 | 2.0 | 8.0 | 0.00 | 0.00 | 0.00 | 37 | 1005.1 |
| 20260504173045 | 74 | 303 | 3.0 | 14.0 | 0.00 | 0.00 | 0.00 | 36 | 1005.4 |
| 20260504172547 | 74 | 219 | 5.0 | 14.0 | 0.00 | 0.00 | 0.00 | 38 | 1005.5 |
| 20260504172045 | 73 | 244 | 4.0 | 10.0 | 0.00 | 0.00 | 0.00 | 38 | 1005.6 |
| 20260504171549 | 73 | 237 | 4.0 | 8.0 | 0.00 | 0.00 | 0.00 | 38 | 1005.6 |
| 20260504171043 | 73 | 174 | 3.0 | 7.0 | 0.00 | 0.00 | 0.00 | 36 | 1005.7 |
| 20260504170540 | 73 | 198 | 3.0 | 11.0 | 0.00 | 0.00 | 0.00 | 37 | 1005.6 |
| 20260504151025 | 68 | 264 | 4.0 | 10.0 | 0.00 | 0.00 | 0.00 | 42 | 1006.9 |
| 20260504150525 | 69 | 234 | 2.0 | 9.0 | 0.00 | 0.00 | 0.00 | 43 | 1006.9 |
| 20260504141010 | 63 | 218 | 1.0 | 10.0 | 0.00 | 0.00 | 0.00 | 52 | 1007.1 |
| 20260504140509 | 62 | 237 | 2.0 | 6.0 | 0.00 | 0.00 | 0.00 | 53 | 1007.1 |
| 20260504130555 | 57 | 231 | 4.0 | 8.0 | 0.00 | 0.00 | 0.00 | 58 | 1007.9 |
| 20260504110531 | 47 | 218 | 1.0 | 3.0 | 0.00 | 0.00 | 0.00 | 71 | 1008.1 |
| 20260504100519 | 48 | 229 | 0.0 | 1.0 | 0.00 | 0.00 | 0.00 | 70 | 1008.2 |
| 20260504090125 | 48 | 218 | 1.0 | 4.0 | 0.00 | 0.00 | 0.00 | 68 | 1008.3 |
| 20260504081513 | 49 | 219 | 0.0 | 3.0 | 0.00 | 0.00 | 0.00 | 67 | 1008.4 |
| 20260504081015 | 49 | 218 | 0.0 | 3.0 | 0.00 | 0.00 | 0.00 | 66 | 1008.3 |
| 20260504080512 | 49 | 204 | 1.0 | 3.0 | 0.00 | 0.00 | 0.00 | 66 | 1008.3 |
| 20260504050546 | 50 | 205 | 0.0 | 2.0 | 0.00 | 0.00 | 0.00 | 61 | 1008.5 |
| 20260504045548 | 50 | 200 | 0.0 | 1.0 | 0.00 | 0.00 | 0.00 | 61 | 1008.4 |
| 20260504045044 | 49 | 201 | 0.0 | 0.0 | 0.00 | 0.00 | 0.00 | 62 | 1008.4 |
| 20260504044544 | 49 | 201 | 0.0 | 1.0 | 0.00 | 0.00 | 0.00 | 62 | 1008.3 |
| 20260504044044 | 49 | 201 | 0.0 | 1.0 | 0.00 | 0.00 | 0.00 | 62 | 1008.3 |
| 20260504043542 | 49 | 201 | 0.0 | 0.0 | 0.00 | 0.00 | 0.00 | 63 | 1008.4 |
| 20260504043048 | 49 | 201 | 0.0 | 0.0 | 0.00 | 0.00 | 0.00 | 63 | 1008.4 |
| 20260504042544 | 48 | 201 | 0.0 | 0.0 | 0.00 | 0.00 | 0.00 | 63 | 1008.3 |
| 20260504042039 | 48 | 201 | 0.0 | 1.0 | 0.00 | 0.00 | 0.00 | 64 | 1008.3 |
| 20260504041539 | 48 | 201 | 0.0 | 1.0 | 0.00 | 0.00 | 0.00 | 64 | 1008.4 |
| 20260504041037 | 48 | 207 | 0.0 | 1.0 | 0.00 | 0.00 | 0.00 | 65 | 1008.5 |
| 20260504040538 | 47 | 214 | 0.0 | 0.0 | 0.00 | 0.00 | 0.00 | 67 | 1008.4 |
| 20260504040035 | 47 | 214 | 0.0 | 0.0 | 0.00 | 0.00 | 0.00 | 67 | 1008.4 |
| 20260504035535 | 47 | 214 | 0.0 | 0.0 | 0.00 | 0.00 | 0.00 | 67 | 1008.4 |
| 20260504035036 | 46 | 214 | 0.0 | 0.0 | 0.00 | 0.00 | 0.00 | 67 | 1008.4 |
| 20260504034535 | 46 | 214 | 0.0 | 1.0 | 0.00 | 0.00 | 0.00 | 66 | 1008.5 |
| 20260504034034 | 46 | 214 | 0.0 | 1.0 | 0.00 | 0.00 | 0.00 | 67 | 1008.4 |
| 20260504033538 | 46 | 214 | 0.0 | 0.0 | 0.00 | 0.00 | 0.00 | 68 | 1008.4 |
| 20260504033037 | 45 | 214 | 0.0 | 0.0 | 0.00 | 0.00 | 0.00 | 69 | 1008.3 |
| 20260504032534 | 45 | 214 | 0.0 | 0.0 | 0.00 | 0.00 | 0.00 | 69 | 1008.3 |
| 20260504032035 | 45 | 214 | 0.0 | 0.0 | 0.00 | 0.00 | 0.00 | 67 | 1008.4 |
| 20260504031535 | 45 | 214 | 0.0 | 0.0 | 0.00 | 0.00 | 0.00 | 67 | 1008.4 |
| 20260504031034 | 46 | 214 | 0.0 | 0.0 | 0.00 | 0.00 | 0.00 | 65 | 1008.4 |
| 20260504030534 | 46 | 214 | 0.0 | 0.0 | 0.00 | 0.00 | 0.00 | 65 | 1008.4 |
| 20260504030034 | 46 | 214 | 0.0 | 0.0 | 0.00 | 0.00 | 0.00 | 64 | 1008.4 |
| 20260504025533 | 46 | 214 | 0.0 | 0.0 | 0.00 | 0.00 | 0.00 | 65 | 1008.3 |
| 20260504025033 | 47 | 214 | 0.0 | 0.0 | 0.00 | 0.00 | 0.00 | 66 | 1008.3 |
| 20260504024535 | 47 | 214 | 0.0 | 0.0 | 0.00 | 0.00 | 0.00 | 63 | 1008.3 |
| 20260504024033 | 48 | 214 | 0.0 | 0.0 | 0.00 | 0.00 | 0.00 | 62 | 1008.3 |
| 20260504023532 | 48 | 214 | 0.0 | 0.0 | 0.00 | 0.00 | 0.00 | 62 | 1008.4 |
| 20260504023032 | 48 | 214 | 0.0 | 0.0 | 0.00 | 0.00 | 0.00 | 61 | 1008.3 |
| 20260504022532 | 48 | 214 | 0.0 | 0.0 | 0.00 | 0.00 | 0.00 | 61 | 1008.4 |
| 20260504022032 | 48 | 214 | 0.0 | 0.0 | 0.00 | 0.00 | 0.00 | 60 | 1008.4 |
| 20260504021533 | 48 | 214 | 0.0 | 0.0 | 0.00 | 0.00 | 0.00 | 59 | 1008.2 |
| 20260504021031 | 49 | 214 | 0.0 | 0.0 | 0.00 | 0.00 | 0.00 | 58 | 1008.3 |
| 20260504020532 | 49 | 214 | 0.0 | 0.0 | 0.00 | 0.00 | 0.00 | 59 | 1008.2 |
| 20260504020033 | 49 | 214 | 0.0 | 0.0 | 0.00 | 0.00 | 0.00 | 57 | 1008.2 |
| 20260504015531 | 50 | 214 | 0.0 | 0.0 | 0.00 | 0.00 | 0.00 | 56 | 1008.1 |
| 20260504015032 | 50 | 214 | 0.0 | 0.0 | 0.00 | 0.00 | 0.00 | 56 | 1008.2 |
| 20260504014538 | 51 | 214 | 0.0 | 0.0 | 0.00 | 0.00 | 0.00 | 55 | 1008.2 |
| 20260504014032 | 52 | 214 | 0.0 | 1.0 | 0.00 | 0.00 | 0.00 | 55 | 1008.1 |
| 20260504013530 | 52 | 214 | 0.0 | 2.0 | 0.00 | 0.00 | 0.00 | 54 | 1008.2 |
| 20260504013030 | 52 | 193 | 0.0 | 2.0 | 0.00 | 0.00 | 0.00 | 54 | 1008.1 |
| 20260504012533 | 51 | 194 | 0.0 | 2.0 | 0.00 | 0.00 | 0.00 | 55 | 1008.0 |
| 20260504012033 | 51 | 193 | 0.0 | 3.0 | 0.00 | 0.00 | 0.00 | 56 | 1007.9 |
| 20260504011530 | 51 | 207 | 0.0 | 3.0 | 0.00 | 0.00 | 0.00 | 57 | 1007.8 |
| 20260504011029 | 51 | 214 | 0.0 | 0.0 | 0.00 | 0.00 | 0.00 | 58 | 1007.8 |
| 20260504010529 | 51 | 268 | 0.0 | 0.0 | 0.00 | 0.00 | 0.00 | 55 | 1007.7 |
| 20260504010029 | 51 | 268 | 0.0 | 0.0 | 0.00 | 0.00 | 0.00 | 56 | 1007.6 |
| 20260504005530 | 51 | 271 | 0.0 | 0.0 | 0.00 | 0.00 | 0.00 | 55 | 1007.7 |
| 20260504005029 | 51 | 271 | 0.0 | 0.0 | 0.00 | 0.00 | 0.00 | 57 | 1007.6 |
| 20260504004528 | 51 | 271 | 0.0 | 0.0 | 0.00 | 0.00 | 0.00 | 58 | 1007.6 |
| 20260504004030 | 52 | 271 | 0.0 | 0.0 | 0.00 | 0.00 | 0.00 | 57 | 1007.5 |
| 20260504003527 | 53 | 271 | 0.0 | 0.0 | 0.00 | 0.00 | 0.00 | 55 | 1007.3 |
| 20260504003034 | 53 | 271 | 0.0 | 0.0 | 0.00 | 0.00 | 0.00 | 54 | 1007.3 |
| 20260504002528 | 54 | 271 | 0.0 | 0.0 | 0.00 | 0.00 | 0.00 | 52 | 1007.3 |
| 20260504002028 | 55 | 271 | 0.0 | 0.0 | 0.00 | 0.00 | 0.00 | 50 | 1007.3 |
| 20260504001536 | 56 | 271 | 0.0 | 0.0 | 0.00 | 0.00 | 0.00 | 50 | 1007.3 |
| 20260504001028 | 57 | 271 | 0.0 | 0.0 | 0.00 | 0.00 | 0.00 | 48 | 1007.4 |
| 20260504000528 | 58 | 271 | 0.0 | 0.0 | 0.00 | 0.00 | 0.00 | 45 | 1007.3 |